1491379200.88,4060,13.63,73636.5,-0.73,-3.11,-3.07,0,*51
1491379202.09,4061,13.63,73642.5,-0.75,-3.07,-2.95,0,*5B
1491379203.27,4062,13.56,73630.0,-0.77,-3.23,-3.11,0,*51
1491379204.45,4063,13.63,73638.0,-0.73,-3.27,-3.23,0,*51
1491379205.66,4064,13.63,73630.8,-0.75,-3.27,-3.11,0,*51
1491379206.88,4065,13.63,73636.3,-0.75,-3.11,-2.99,0,*54
1491379208.09,4066,13.63,73638.0,-0.71,-3.11,-2.95,0,*5F
1491379209.31,4067,13.63,73638.8,-0.75,-3.35,-3.27,0,*54
1491379210.49,4068,13.63,73628.5,-0.73,-3.15,-2.99,0,*5B
1491379211.71,4069,13.63,73634.3,-0.75,-3.15,-2.99,0,*5C
1491379212.91,4070,13.63,73630.5,-0.71,-2.91,-2.79,0,*53
1491379214.09,4071,13.63,73636.5,-0.73,-3.11,-2.99,0,*57
1491379215.28,4072,13.63,73632.5,-0.73,-3.39,-3.27,0,*5A
1491379216.46,4073,13.63,73638.5,-0.73,-3.23,-3.07,0,*52
1491379217.66,4074,13.63,73636.0,-0.71,-3.23,-3.07,0,*57
1491379218.87,4075,13.63,73638.5,-0.71,-3.11,-2.95,0,*5D
1491379220.08,4076,13.63,73636.5,-0.71,-3.11,-3.03,0,*50
1491379221.29,4077,13.63,73636.5,-0.71,-3.11,-3.03,0,*51
1491379222.49,4078,13.63,73632.0,-0.71,-3.03,-2.91,0,*57
1491379223.7,4079,13.63,73636.3,-0.71,-3.11,-3.07,0,*5B
1491379224.91,4080,13.63,73632.5,-0.71,-3.07,-2.95,0,*50
1491379226.09,4081,13.63,73634.3,-0.69,-3.03,-2.91,0,*58
1491379227.3,4082,13.63,73636.5,-0.69,-2.91,-2.71,0,*5F
1491379228.51,4083,13.63,73634.8,-0.67,-2.99,-2.87,0,*51
1491379229.69,4084,13.63,73638.5,-0.69,-3.19,-3.03,0,*5C
1491379230.91,4085,13.63,73638.5,-0.67,-3.07,-2.99,0,*5E
1491379232.11,4086,13.63,73630.8,-0.67,-3.39,-3.19,0,*59
1491379233.37,4087,13.63,73630.8,-0.67,-3.63,-3.43,0,*58
1491379234.59,4088,13.63,73636.3,-0.67,-3.15,-2.99,0,*50
1491379235.8,4089,13.63,73632.5,-0.67,-2.99,-2.87,0,*5B
1491379237.01,4090,13.63,73638.0,-0.67,-3.03,-2.91,0,*56
1491379238.2,4091,13.63,73636.0,-0.61,-3.15,-2.99,0,*5E
1491379239.38,4092,13.63,73638.8,-0.61,-3.27,-3.03,0,*5E
1491379240.57,4093,13.63,73628.3,-0.61,-2.99,-2.95,0,*55
1491379241.76,4094,13.63,73638.8,-0.61,-3.15,-3.03,0,*59
1491379242.94,4095,13.63,73634.8,-0.61,-2.99,-2.99,0,*5F
1491379244.18,4096,13.63,73634.8,-0.61,-2.75,-2.71,0,*58
1491379245.4,4097,13.63,73632.5,-0.59,-2.95,-2.91,0,*52
1491379246.57,4098,13.63,73634.5,-0.57,-2.91,-2.91,0,*57
1491379247.76,4099,13.63,73634.5,-0.57,-2.95,-2.91,0,*52
1491379248.98,4100,13.63,73634.3,-0.59,-2.95,-2.83,0,*5E
1491379250.16,4101,13.63,73638.0,-0.57,-2.99,-3.07,0,*50
1491379251.36,4102,13.63,73636.0,-0.55,-2.91,-2.87,0,*50
1491379252.62,4103,13.56,73630.0,-0.55,-2.75,-2.67,0,*55
1491379253.88,4104,13.63,73630.8,-0.55,-2.55,-2.63,0,*54
1491379255.12,4105,13.63,73634.8,-0.53,-2.63,-2.55,0,*53
1491379256.36,4106,13.63,73636.8,-0.53,-2.67,-2.55,0,*54
1491379257.57,4107,13.63,73634.3,-0.53,-2.79,-2.63,0,*5F
1491379258.78,4108,13.63,73632.5,-0.53,-2.87,-2.75,0,*56
1491379260.02,4109,13.63,73632.3,-0.51,-2.87,-2.63,0,*52
1491379261.23,4110,13.63,73634.8,-0.49,-2.83,-2.59,0,*5E
1491379262.49,4111,13.63,73632.5,-0.51,-2.75,-2.51,0,*57
1491379263.71,4112,13.63,73632.3,-0.49,-2.83,-2.63,0,*55
1491379264.95,4113,13.63,73634.8,-0.49,-2.75,-2.71,0,*5E
1491379266.21,4114,13.63,73630.3,-0.47,-2.71,-2.59,0,*59
1491379267.47,4115,13.63,73634.3,-0.47,-2.67,-2.47,0,*50
1491379268.7,4116,13.63,73638.8,-0.47,-2.55,-2.31,0,*53
1491379269.91,4117,13.63,73636.8,-0.45,-2.67,-2.43,0,*54
1491379271.11,4118,13.63,73636.8,-0.45,-2.59,-2.43,0,*56
1491379272.35,4119,13.63,73636.8,-0.45,-2.71,-2.67,0,*5B
1491379273.59,4120,13.63,73632.0,-0.45,-2.71,-2.47,0,*53
1491379274.82,4121,13.63,73638.0,-0.45,-2.59,-2.55,0,*5B
1491379276.09,4122,13.63,73634.8,-0.43,-2.75,-2.63,0,*55
1491379277.35,4123,13.63,73638.5,-0.39,-2.71,-2.51,0,*5C
1491379278.59,4124,13.63,73636.8,-0.39,-2.51,-2.35,0,*5B
1491379279.85,4125,13.63,73638.3,-0.39,-2.63,-2.47,0,*5E
1491379281.09,4126,13.63,73638.0,-0.39,-2.51,-2.39,0,*55
1491379282.3,4127,13.63,73634.5,-0.37,-2.71,-2.39,0,*58
1491379283.51,4128,13.63,73632.5,-0.37,-2.47,-2.27,0,*5D
1491379284.72,4129,13.63,73638.3,-0.37,-2.63,-2.39,0,*55
1491379285.97,4130,13.63,73634.0,-0.35,-2.47,-2.23,0,*52
1491379287.21,4131,13.63,73636.3,-0.35,-2.47,-2.19,0,*5A
1491379288.4,4132,13.63,73638.5,-0.33,-2.35,-2.23,0,*53
1491379289.64,4133,13.63,73634.8,-0.31,-2.55,-2.31,0,*55
1491379290.84,4134,13.63,73632.3,-0.33,-2.59,-2.43,0,*59
1491379292.09,4135,13.63,73634.0,-0.31,-2.63,-2.31,0,*56
1491379293.29,4136,13.63,73638.3,-0.31,-2.39,-2.15,0,*5C
1491379294.53,4137,13.63,73640.5,-0.31,-2.55,-2.31,0,*51
1491379295.74,4138,13.63,73636.5,-0.29,-2.79,-2.59,0,*57
1491379297.0,4139,13.63,73636.0,-0.27,-2.75,-2.59,0,*54
1491379298.23,4140,13.63,73634.3,-0.27,-2.47,-2.27,0,*52
1491379299.46,4141,13.63,73634.8,-0.27,-2.59,-2.39,0,*53
1491379300.72,4142,13.63,73638.0,-0.27,-2.67,-2.47,0,*54
1491379301.93,4143,13.63,73634.3,-0.25,-2.63,-2.43,0,*57
1491379303.19,4144,13.63,73636.3,-0.23,-2.71,-2.59,0,*5E
1491379304.43,4145,13.63,73632.5,-0.23,-2.63,-2.43,0,*57
1491379305.65,4146,13.63,73638.0,-0.23,-2.55,-2.43,0,*51
1491379306.86,4147,13.63,73638.8,-0.21,-2.51,-2.31,0,*53
1491379308.07,4148,13.63,73634.8,-0.21,-2.83,-2.59,0,*5D
1491379309.28,4149,13.63,73632.8,-0.21,-3.07,-2.71,0,*5B
1491379310.52,4150,13.63,73634.3,-0.17,-3.03,-2.67,0,*55
1491379311.72,4151,13.63,73632.3,-0.21,-2.91,-2.59,0,*56
1491379312.99,4152,13.63,73634.8,-0.17,-2.71,-2.55,0,*52
1491379314.24,4153,13.63,73628.3,-0.17,-2.95,-2.67,0,*58
1491379315.48,4154,13.63,73634.3,-0.15,-2.75,-2.51,0,*56
1491379316.73,4155,13.63,73636.5,-0.15,-2.63,-2.47,0,*57
1491379317.97,4156,13.63,73628.0,-0.15,-2.75,-2.51,0,*54
1491379319.23,4157,13.63,73628.8,-0.13,-2.75,-2.55,0,*57
1491379320.47,4158,13.63,73630.3,-0.13,-2.87,-2.75,0,*57
1491379321.71,4159,13.63,73632.5,-0.13,-2.79,-2.63,0,*50
1491379322.98,4160,13.63,73634.3,-0.13,-2.67,-2.63,0,*55
1491379324.18,4161,13.63,73632.5,-0.11,-2.51,-2.43,0,*51
1491379325.39,4162,13.63,73632.0,-0.09,-2.35,-2.35,0,*68
1491379326.6,4163,13.56,73630.0,-0.09,-2.35,-2.31,0,*6D
1491379327.8,4164,13.63,73630.0,-0.09,-2.35,-2.35,0,*6E
1491379329.06,4165,13.63,73632.0,-0.09,-2.59,-2.47,0,*60
1491379330.27,4166,13.63,73632.3,-0.09,-2.43,-2.31,0,*69
1491379331.49,4167,13.63,73632.8,-0.05,-2.15,-2.03,0,*66
1491379332.69,4168,13.63,73630.5,-0.05,-2.27,-2.27,0,*6E
1491379333.89,4169,13.63,73630.8,-0.05,-2.43,-2.39,0,*62
1491379335.13,4170,13.63,73634.0,-0.07,-2.55,-2.47,0,*66
1491379336.36,4171,13.63,73628.8,-0.05,-2.51,-2.35,0,*64
1491379337.56,4172,13.56,73630.0,-0.05,-2.43,-2.39,0,*68
1491379338.78,4173,13.63,73632.8,-0.05,-2.51,-2.43,0,*67
1491379339.99,4174,13.63,73632.5,-0.05,-2.23,-2.15,0,*66
1491379341.21,4175,13.63,73634.3,-0.03,-2.03,-1.87,0,*6B
1491379342.39,4176,13.63,73636.5,-0.03,-1.75,-1.67,0,*64
1491379343.6,4177,13.63,73628.0,-0.01,-2.35,-2.23,0,*63
1491379344.83,4178,13.63,73634.5,-0.03,-2.63,-2.63,0,*69
1491379346.01,4179,13.63,73632.8,-0.03,-2.35,-2.35,0,*68
1491379347.23,4180,13.63,73630.8,-0.01,-2.23,-2.11,0,*6D
1491379348.5,4181,13.63,73630.3,-0.01,-1.99,-1.87,0,*62
1491379349.67,4182,13.63,73634.5,0.01,-2.35,-2.31,0,*47
1491379350.84,4183,13.63,73634.5,0.01,-2.35,-2.23,0,*45
1491379352.07,4184,13.63,73628.8,0.01,-2.11,-1.99,0,*46
1491379353.29,4185,13.63,73634.5,0.01,-1.95,-1.91,0,*40
1491379354.46,4186,13.63,73634.8,0.05,-2.31,-2.27,0,*44
1491379355.63,4187,13.63,73634.3,0.05,-2.31,-2.31,0,*42
1491379356.8,4188,13.63,73634.0,0.05,-2.35,-2.23,0,*4A
1491379357.98,4189,13.63,73632.5,0.05,-2.35,-2.31,0,*48
1491379359.15,4190,13.63,73636.3,0.05,-2.27,-2.15,0,*45
1491379360.32,4191,13.63,73634.0,0.05,-2.19,-2.15,0,*49
1491379361.54,4192,13.63,73632.8,0.05,-2.03,-1.91,0,*4E
1491379362.76,4193,13.63,73634.3,0.09,-2.03,-1.87,0,*44
1491379363.99,4194,13.63,73638.0,0.07,-2.15,-2.11,0,*46
1491379365.16,4195,13.63,73634.3,0.09,-1.75,-1.67,0,*4E
1491379366.33,4196,13.56,73628.3,0.09,-1.79,-1.67,0,*41
1491379367.53,4197,13.63,73632.8,0.07,-1.79,-1.63,0,*4A
1491379368.78,4198,13.63,73628.0,0.11,-2.11,-2.11,0,*79
1491379370.04,4199,13.63,73632.5,0.11,-2.07,-2.07,0,*78
1491379371.3,4200,13.63,73634.5,0.13,-1.99,-1.87,0,*76
1491379372.57,4201,13.63,73634.8,0.13,-1.99,-1.87,0,*77
1491379373.77,4202,13.63,73632.5,0.13,-1.75,-1.71,0,*7F
1491379375.03,4203,13.63,73634.8,0.13,-1.95,-1.83,0,*7D
1491379376.3,4204,13.63,73634.5,0.13,-2.11,-1.99,0,*7E
1491379377.56,4205,13.63,73634.5,0.13,-1.99,-1.87,0,*73
1491379378.81,4206,13.63,73636.8,0.13,-1.95,-1.95,0,*7F
1491379380.03,4207,13.63,73634.3,0.17,-2.19,-2.07,0,*75
1491379381.28,4208,13.63,73634.5,0.17,-1.95,-1.83,0,*72
1491379382.49,4209,13.63,73636.5,0.15,-1.91,-1.79,0,*70
1491379383.74,4210,13.63,73634.0,0.17,-2.03,-2.07,0,*78
1491379384.97,4211,13.63,73632.3,0.17,-2.19,-2.07,0,*72
1491379386.2,4212,13.63,73636.5,0.17,-2.15,-2.03,0,*79
1491379387.42,4213,13.63,73632.8,0.17,-1.91,-1.79,0,*79
1491379388.62,4214,13.63,73636.3,0.17,-1.79,-1.71,0,*70
1491379389.86,4215,13.63,73632.8,0.19,-2.03,-1.87,0,*78
1491379391.06,4216,13.63,73632.5,0.21,-1.63,-1.51,0,*7E
1491379392.26,4217,13.63,73638.0,0.21,-1.79,-1.79,0,*7E
1491379393.46,4218,13.63,73632.3,0.21,-1.67,-1.51,0,*74
1491379394.66,4219,13.63,73630.5,0.21,-1.67,-1.63,0,*74
1491379395.84,4220,13.63,73630.8,0.27,-1.67,-1.59,0,*71
1491379397.07,4221,13.63,73628.3,0.23,-1.95,-1.83,0,*7E
1491379398.25,4222,13.63,73626.0,0.23,-1.75,-1.63,0,*7D
1491379399.48,4223,13.63,73626.8,0.23,-1.95,-1.83,0,*7C
1491379400.66,4224,13.63,73630.3,0.27,-2.31,-2.19,0,*72
1491379401.84,4225,13.63,73624.8,0.27,-2.35,-2.23,0,*7E
1491379403.04,4226,13.56,73622.0,0.27,-2.19,-2.11,0,*72
1491379404.25,4227,13.63,73622.3,0.27,-2.47,-2.35,0,*7E
1491379405.49,4228,13.63,73628.5,0.23,-2.07,-1.99,0,*74
1491379406.67,4229,13.63,73630.0,0.27,-2.31,-2.19,0,*7F
1491379407.9,4230,13.63,73630.0,0.27,-2.11,-2.03,0,*7E
1491379409.13,4231,13.63,73632.3,0.27,-2.07,-2.03,0,*78
1491379410.32,4232,13.63,73634.8,0.27,-1.71,-1.67,0,*78
1491379411.55,4233,13.63,73630.3,0.29,-1.35,-1.33,0,*76
1491379412.74,4234,13.63,73628.0,0.29,-1.59,-1.55,0,*7B
1491379413.97,4235,13.63,73630.3,0.29,-1.91,-1.67,0,*7F
1491379415.2,4236,13.63,73624.8,0.31,-1.87,-1.87,0,*7C
1491379416.4,4237,13.63,73630.5,0.33,-1.63,-1.51,0,*7E
1491379417.6,4238,13.63,73626.5,0.33,-1.79,-1.75,0,*7C
1491379418.85,4239,13.63,73628.5,0.33,-2.03,-1.91,0,*79
1491379420.05,4240,13.63,73632.3,0.33,-2.27,-2.15,0,*7E
1491379421.3,4241,13.56,73624.5,0.33,-2.07,-1.99,0,*7A
1491379422.49,4242,13.63,73628.0,0.35,-1.75,-1.71,0,*7F
1491379423.71,4243,13.63,73632.5,0.35,-1.95,-1.87,0,*79
1491379424.94,4244,13.63,73636.5,0.35,-2.03,-1.95,0,*71
1491379426.17,4245,13.63,73636.0,0.35,-1.87,-1.83,0,*78
1491379427.41,4246,13.63,73630.3,0.35,-1.99,-1.83,0,*74
1491379428.63,4247,13.63,73634.3,0.35,-2.03,-1.95,0,*72
1491379429.88,4248,13.63,73634.0,0.37,-2.11,-1.95,0,*7C
1491379431.11,4249,13.63,73638.8,0.39,-1.99,-1.83,0,*77
1491379432.32,4250,13.63,73636.8,0.39,-1.83,-1.79,0,*71
1491379433.55,4251,13.63,73634.5,0.39,-1.99,-1.91,0,*7D
1491379434.78,4252,13.63,73634.8,0.39,-2.11,-2.07,0,*71
1491379436.01,4253,13.63,73634.0,0.39,-1.99,-1.91,0,*7F
1491379437.24,4254,13.63,73634.8,0.37,-2.15,-1.99,0,*79
1491379438.48,4255,13.63,73636.3,0.39,-2.11,-1.99,0,*72
1491379439.72,4256,13.63,73636.5,0.41,-1.95,-1.87,0,*7E
1491379440.97,4257,13.63,73636.5,0.41,-1.95,-1.87,0,*7F
1491379442.19,4258,13.63,73632.5,0.43,-1.91,-1.87,0,*76
1491379443.38,4259,13.63,73632.5,0.41,-2.19,-2.15,0,*7E
1491379444.6,4260,13.63,73634.0,0.43,-1.95,-1.87,0,*79
1491379445.82,4261,13.63,73634.5,0.43,-1.95,-1.91,0,*7F
1491379447.05,4262,13.63,73634.0,0.43,-1.87,-1.87,0,*78
1491379448.29,4263,13.63,73632.0,0.41,-2.07,-1.95,0,*73
1491379449.54,4264,13.63,73630.3,0.41,-2.03,-1.91,0,*74
1491379450.71,4265,13.63,73628.5,0.43,-2.27,-2.15,0,*7E
1491379451.91,4266,13.63,73628.5,0.43,-2.51,-2.31,0,*7A
1491379453.11,4267,13.63,73628.0,0.41,-2.31,-2.27,0,*78
1491379454.34,4268,13.63,73628.3,0.43,-2.07,-2.07,0,*72
1491379455.51,4269,13.63,73632.8,0.43,-2.43,-2.39,0,*7E
1491379456.74,4270,13.63,73634.5,0.43,-2.07,-2.07,0,*7B
1491379457.91,4271,13.63,73634.5,0.43,-2.19,-2.19,0,*7A
1491379459.13,4272,13.63,73628.0,0.43,-2.03,-1.95,0,*75
1491379460.35,4273,13.63,73630.3,0.43,-1.91,-1.87,0,*7F
1491379461.57,4274,13.63,73626.3,0.43,-1.95,-1.87,0,*7C
1491379462.8,4275,13.63,73634.8,0.43,-1.87,-1.87,0,*7E
1491379464.03,4276,13.63,73628.8,0.45,-1.83,-1.83,0,*7B
1491379465.25,4277,13.63,73634.0,0.45,-1.91,-1.87,0,*7D
1491379466.48,4278,13.63,73632.3,0.45,-1.99,-1.91,0,*7D
1491379467.71,4279,13.63,73628.8,0.45,-1.91,-1.91,0,*74
1491379468.96,4280,13.63,73630.8,0.47,-1.91,-1.91,0,*70
1491379470.19,4281,13.63,73630.0,0.45,-2.03,-1.87,0,*7C
1491379471.45,4282,13.63,73628.8,0.47,-2.11,-1.99,0,*71
1491379472.68,4283,13.63,73630.3,0.47,-2.15,-2.11,0,*77
1491379473.94,4284,13.63,73638.5,0.47,-1.99,-1.87,0,*7B
1491379475.19,4285,13.63,73632.8,0.47,-2.59,-2.47,0,*7A
1491379476.44,4286,13.63,73632.8,0.47,-2.51,-2.47,0,*71
1491379477.62,4287,13.56,73630.3,0.45,-2.35,-2.27,0,*76
1491379478.87,4288,13.63,73634.8,0.47,-1.99,-1.87,0,*77
1491379480.13,4289,13.63,73632.5,0.47,-1.99,-1.99,0,*79
1491379481.38,4290,13.63,73630.5,0.47,-1.91,-1.87,0,*76
1491379482.61,4291,13.63,73628.8,0.47,-2.15,-2.11,0,*74
1491379483.81,4292,13.63,73634.3,0.47,-2.27,-2.23,0,*77
1491379485.07,4293,13.63,73630.5,0.47,-2.03,-1.91,0,*7A
1491379486.29,4294,13.63,73632.0,0.53,-1.99,-1.87,0,*7F
1491379487.49,4295,13.63,73632.3,0.51,-2.23,-2.19,0,*7A
1491379488.75,4296,13.63,73634.0,0.51,-2.11,-2.11,0,*70
1491379489.95,4297,13.63,73632.3,0.51,-2.35,-2.23,0,*76
1491379491.2,4298,13.63,73634.3,0.51,-1.95,-1.87,0,*7D
1491379492.38,4299,13.63,73630.8,0.53,-2.31,-2.31,0,*7D
1491379493.6,4300,13.63,73632.0,0.51,-2.23,-2.07,0,*78
1491379494.83,4301,13.63,73634.3,0.53,-1.99,-1.87,0,*72
1491379496.05,4302,13.63,73634.0,0.53,-2.07,-1.95,0,*76
1491379497.31,4303,13.63,73632.3,0.51,-2.07,-1.99,0,*79
1491379498.53,4304,13.63,73634.8,0.53,-2.07,-1.99,0,*7C
1491379499.73,4305,13.63,73632.8,0.53,-2.59,-2.43,0,*72
1491379500.94,4306,13.63,73634.5,0.53,-2.67,-2.59,0,*77
1491379502.17,4307,13.63,73630.3,0.51,-2.55,-2.43,0,*7E
1491379503.4,4308,13.63,73630.5,0.53,-2.11,-1.99,0,*77
1491379504.65,4309,13.63,73632.8,0.51,-1.95,-1.83,0,*70
1491379505.88,4310,13.63,73634.3,0.51,-1.87,-1.79,0,*7E
1491379507.13,4311,13.63,73628.3,0.51,-1.83,-1.83,0,*7E
1491379508.3,4312,13.63,73634.3,0.53,-2.43,-2.31,0,*7A
1491379509.52,4313,13.63,73634.5,0.53,-1.99,-1.95,0,*72
1491379510.74,4314,13.63,73628.8,0.53,-1.95,-1.83,0,*7E
1491379511.96,4315,13.63,73624.5,0.53,-1.95,-1.87,0,*7B
1491379513.18,4316,13.63,73628.8,0.53,-1.95,-1.95,0,*7B
1491379514.41,4317,13.63,73634.5,0.53,-2.11,-1.99,0,*79
1491379515.57,4318,13.63,73632.8,0.53,-2.23,-2.19,0,*7C
1491379516.8,4319,13.63,73638.0,0.53,-2.11,-2.07,0,*73
1491379518.06,4320,13.63,73630.8,0.55,-2.07,-2.03,0,*7C
1491379519.3,4321,13.63,73634.0,0.55,-2.07,-1.95,0,*71
1491379520.47,4322,13.63,73630.5,0.53,-2.27,-2.19,0,*71
1491379521.7,4323,13.63,73630.0,0.53,-2.11,-2.11,0,*7D
1491379522.87,4324,13.63,73628.0,0.53,-2.23,-2.19,0,*73
1491379524.04,4325,13.63,73628.3,0.53,-2.35,-2.31,0,*7F
1491379525.23,4326,13.63,73630.3,0.53,-2.47,-2.43,0,*7C
1491379526.46,4327,13.63,73632.0,0.53,-2.55,-2.55,0,*79
1491379527.68,4328,13.63,73628.3,0.53,-2.67,-2.55,0,*77
1491379528.85,4329,13.63,73628.0,0.53,-2.35,-2.31,0,*73
1491379530.08,4330,13.63,73630.8,0.53,-2.11,-1.99,0,*7C
1491379531.31,4331,13.63,73630.3,0.53,-1.99,-1.87,0,*71
1491379532.48,4332,13.63,73628.5,0.53,-1.79,-1.79,0,*7D
1491379533.71,4333,13.63,73630.3,0.53,-1.87,-1.83,0,*78
1491379534.96,4334,13.63,73630.3,0.55,-2.03,-1.91,0,*75
1491379536.2,4335,13.63,73632.3,0.55,-1.91,-1.83,0,*7F
1491379537.45,4336,13.63,73626.3,0.55,-2.03,-1.91,0,*77
1491379538.64,4337,13.63,73628.0,0.55,-2.39,-2.27,0,*71
1491379539.89,4338,13.63,73630.0,0.55,-2.03,-1.95,0,*7D
1491379541.09,4339,13.63,73628.0,0.55,-1.79,-1.75,0,*7C
1491379542.29,4340,13.63,73624.0,0.55,-1.79,-1.67,0,*71
1491379543.53,4341,13.63,73626.3,0.55,-1.95,-1.83,0,*78
1491379544.73,4342,13.63,73628.0,0.57,-1.91,-1.79,0,*78
1491379545.9,4343,13.63,73630.5,0.57,-1.75,-1.75,0,*7F
1491379547.09,4344,13.63,73628.3,0.57,-1.55,-1.43,0,*7F
1491379548.29,4345,13.63,73626.0,0.55,-1.63,-1.55,0,*7E
1491379549.49,4346,13.63,73628.8,0.59,-1.71,-1.63,0,*77
1491379550.75,4347,13.63,73630.8,0.59,-1.99,-1.99,0,*75
1491379551.97,4348,13.63,73628.0,0.59,-1.87,-1.75,0,*77
1491379553.23,4349,13.63,73634.0,0.59,-2.03,-1.99,0,*7B
1491379554.4,4350,13.63,73630.8,0.61,-1.79,-1.75,0,*74
1491379555.57,4351,13.63,73630.8,0.61,-1.59,-1.55,0,*75
1491379556.76,4352,13.63,73628.3,0.59,-1.63,-1.63,0,*71
1491379557.94,4353,13.63,73630.8,0.61,-1.71,-1.59,0,*71
1491379559.16,4354,13.63,73630.3,0.61,-1.95,-1.83,0,*7B
1491379560.34,4355,13.63,73630.0,0.61,-1.75,-1.75,0,*7D
1491379561.51,4356,13.63,73628.0,0.61,-1.67,-1.59,0,*73
1491379562.7,4357,13.63,73630.5,0.61,-1.47,-1.33,0,*7C
1491379563.91,4358,13.63,73630.5,0.63,-1.71,-1.67,0,*75
1491379565.11,4359,13.63,73624.5,0.63,-1.75,-1.71,0,*77
1491379566.29,4360,13.63,73624.3,0.65,-1.71,-1.63,0,*7C
1491379567.5,4361,13.63,73622.8,0.63,-1.71,-1.67,0,*7F
1491379568.66,4362,13.63,73620.0,0.65,-1.63,-1.55,0,*78
1491379569.88,4363,13.63,73624.3,0.65,-1.95,-2.03,0,*70
1491379571.06,4364,13.63,73626.0,0.65,-1.79,-1.67,0,*74
1491379572.23,4365,13.63,73622.0,0.65,-1.79,-1.71,0,*72
1491379573.4,4366,13.63,73624.3,0.65,-1.63,-1.63,0,*79
1491379574.59,4367,13.63,73624.8,0.65,-1.79,-1.83,0,*7D
1491379575.79,4368,13.63,73626.3,0.67,-2.15,-2.15,0,*75
1491379577.0,4369,13.63,73626.3,0.67,-2.31,-2.31,0,*74
1491379578.22,4370,13.63,73624.0,0.67,-2.15,-2.03,0,*7B
1491379579.43,4371,13.63,73628.5,0.67,-1.79,-1.67,0,*72
1491379580.68,4372,13.63,73630.0,0.67,-1.95,-1.91,0,*7A
1491379581.93,4373,13.63,73628.3,0.67,-2.07,-2.03,0,*7B
1491379583.1,4374,13.63,73624.0,0.69,-2.23,-2.23,0,*76
1491379584.3,4375,13.63,73630.0,0.67,-2.27,-2.27,0,*79
1491379585.52,4376,13.63,73626.5,0.65,-1.95,-1.83,0,*7F
1491379586.74,4377,13.63,73626.5,0.65,-1.91,-1.83,0,*7A
1491379587.95,4378,13.63,73630.3,0.67,-1.71,-1.71,0,*74
1491379589.15,4379,13.63,73632.5,0.67,-1.67,-1.63,0,*71
1491379590.35,4380,13.63,73628.8,0.67,-1.71,-1.63,0,*70
1491379591.52,4381,13.63,73628.8,0.69,-1.67,-1.59,0,*71
1491379592.72,4382,13.63,73628.0,0.69,-1.87,-1.75,0,*72
1491379593.9,4383,13.63,73628.5,0.69,-1.79,-1.67,0,*71
1491379595.1,4384,13.63,73630.5,0.73,-1.55,-1.47,0,*71
1491379596.26,4385,13.63,73630.3,0.73,-1.59,-1.55,0,*7F
1491379597.45,4386,13.63,73634.5,0.73,-1.43,-1.33,0,*77
1491379598.65,4387,13.63,73636.5,0.73,-1.87,-1.71,0,*78
1491379599.83,4388,13.63,73634.0,0.73,-2.31,-2.19,0,*74
1491379601.02,4389,13.63,73632.3,0.73,-2.19,-2.11,0,*77
1491379602.24,4390,13.63,73636.0,0.73,-1.87,-1.87,0,*77
1491379603.46,4391,13.63,73634.5,0.73,-1.95,-1.87,0,*75
1491379604.69,4392,13.63,73632.0,0.73,-2.07,-1.99,0,*71
1491379605.89,4393,13.63,73632.8,0.73,-2.23,-2.07,0,*72
1491379607.1,4394,13.63,73634.0,0.73,-2.07,-1.95,0,*7B
1491379608.3,4395,13.63,73634.3,0.73,-1.87,-1.75,0,*7F
1491379609.5,4396,13.63,73634.5,0.73,-1.87,-1.71,0,*78
1491379610.69,4397,13.63,73628.3,0.77,-1.67,-1.51,0,*71
1491379611.92,4398,13.63,73630.3,0.77,-2.07,-1.91,0,*77
1491379613.12,4399,13.63,73630.5,0.73,-1.87,-1.75,0,*73
1491379614.31,4400,13.63,73634.5,0.77,-1.71,-1.55,0,*7B
1491379615.49,4401,13.63,73636.8,0.77,-1.67,-1.51,0,*79
1491379616.67,4402,13.63,73634.0,0.77,-1.79,-1.59,0,*7D
1491379617.9,4403,13.63,73632.0,0.77,-2.03,-1.91,0,*76
1491379619.11,4404,13.63,73632.8,0.77,-2.03,-1.79,0,*77
1491379620.32,4405,13.63,73634.3,0.77,-2.19,-2.07,0,*77
1491379621.59,4406,13.63,73634.8,0.79,-2.03,-1.91,0,*7D
1491379622.82,4407,13.63,73628.8,0.79,-2.15,-1.91,0,*7B
1491379624.03,4408,13.63,73632.5,0.79,-2.19,-2.15,0,*77
1491379625.29,4409,13.63,73630.5,0.79,-2.03,-1.87,0,*75
1491379626.54,4410,13.63,73636.5,0.81,-2.11,-1.99,0,*76
1491379627.77,4411,13.63,73634.8,0.81,-1.91,-1.87,0,*73
1491379629.01,4412,13.63,73630.3,0.81,-2.03,-1.91,0,*7F
1491379630.22,4413,13.63,73634.3,0.81,-2.15,-2.03,0,*71
1491379631.48,4414,13.63,73628.3,0.79,-2.03,-1.95,0,*7A
1491379632.71,4415,13.63,73628.8,0.81,-1.91,-1.91,0,*70
1491379633.95,4416,13.63,73628.8,0.83,-2.15,-2.11,0,*75
1491379635.19,4417,13.63,73628.3,0.81,-1.99,-1.91,0,*7A
1491379636.46,4418,13.63,73630.5,0.83,-1.99,-1.91,0,*77
1491379637.73,4419,13.63,73630.3,0.83,-1.99,-1.87,0,*71
1491379638.97,4420,13.63,73634.3,0.83,-1.91,-1.79,0,*72
1491379640.21,4421,13.63,73632.5,0.81,-2.11,-1.91,0,*7C
1491379641.42,4422,13.63,73632.5,0.83,-2.27,-2.15,0,*77
1491379642.64,4423,13.63,73630.0,0.83,-2.35,-2.23,0,*70
1491379643.87,4424,13.63,73634.8,0.85,-1.87,-1.87,0,*76
1491379645.09,4425,13.63,73634.8,0.83,-1.75,-1.75,0,*71
1491379646.32,4426,13.63,73630.3,0.85,-1.95,-1.95,0,*74
1491379647.58,4427,13.63,73632.3,0.83,-2.11,-2.11,0,*73
1491379648.83,4428,13.63,73634.8,0.85,-2.07,-1.99,0,*7E
1491379650.1,4429,13.63,73636.5,0.83,-2.11,-1.99,0,*7E
1491379651.36,4430,13.69,73638.0,0.83,-1.91,-1.87,0,*72
1491379652.55,4431,13.63,73634.3,0.85,-2.19,-2.23,0,*7B
1491379653.79,4432,13.63,73638.0,0.85,-2.51,-2.51,0,*71
1491379655.06,4433,13.63,73632.8,0.83,-2.03,-2.03,0,*76
1491379656.3,4434,13.63,73628.8,0.85,-2.11,-2.07,0,*70
1491379657.54,4435,13.63,73630.0,0.85,-2.07,-1.99,0,*72
1491379658.79,4436,13.63,73632.3,0.85,-1.99,-1.99,0,*75
1491379660.0,4437,13.63,73630.8,0.83,-2.27,-2.23,0,*76
1491379661.24,4438,13.63,73634.3,0.85,-2.11,-2.11,0,*7B
1491379662.48,4439,13.63,73628.0,0.83,-2.15,-2.03,0,*7B
1491379663.71,4440,13.69,73630.3,0.85,-1.99,-1.95,0,*78
1491379664.95,4441,13.63,73630.3,0.83,-1.87,-1.79,0,*72
1491379666.17,4442,13.63,73630.0,0.85,-1.83,-1.75,0,*7F
1491379667.38,4443,13.63,73630.3,0.83,-1.75,-1.75,0,*71
1491379668.59,4444,13.63,73630.0,0.85,-2.19,-2.07,0,*7F
1491379669.83,4445,13.63,73630.3,0.85,-1.99,-1.87,0,*7E
1491379671.02,4446,13.63,73630.0,0.85,-1.71,-1.63,0,*71
1491379672.25,4447,13.69,73638.0,0.85,-1.95,-1.95,0,*73
1491379673.49,4448,13.63,73630.0,0.83,-2.43,-2.51,0,*79
1491379674.74,4449,13.63,73628.5,0.85,-2.11,-1.99,0,*7E
1491379675.98,4450,13.63,73626.0,0.85,-2.11,-2.07,0,*72
1491379677.22,4451,13.63,73632.0,0.85,-2.11,-2.11,0,*74
1491379678.41,4452,13.69,73632.8,0.85,-1.71,-1.59,0,*7D
1491379679.65,4453,13.63,73632.3,0.83,-1.87,-1.79,0,*71
1491379680.87,4454,13.69,73632.8,0.85,-1.87,-1.71,0,*78
1491379682.1,4455,13.69,73630.8,0.85,-1.95,-1.83,0,*77
1491379683.34,4456,13.69,73630.8,0.85,-1.99,-1.95,0,*7F
1491379684.55,4457,13.69,73630.0,0.85,-2.23,-2.11,0,*73
1491379685.76,4458,13.63,73630.8,0.83,-2.43,-2.39,0,*76
1491379687.0,4459,13.69,73632.3,0.85,-2.11,-1.99,0,*7F
1491379688.22,4460,13.63,73628.0,0.85,-1.83,-1.63,0,*78
1491379689.43,4461,13.63,73628.3,0.85,-1.95,-1.75,0,*79
1491379690.66,4462,13.69,73634.0,0.85,-2.07,-1.95,0,*7C
1491379691.9,4463,13.69,73636.3,0.85,-2.47,-2.51,0,*72
1491379693.09,4464,13.69,73636.3,0.85,-2.35,-2.23,0,*75
1491379694.27,4465,13.63,73630.5,0.85,-2.39,-2.35,0,*7F
1491379695.46,4466,13.63,73632.3,0.85,-2.31,-2.19,0,*7A
1491379696.64,4467,13.63,73630.0,0.85,-2.39,-2.35,0,*7D
1491379697.88,4468,13.63,73628.0,0.85,-2.63,-2.63,0,*7E
1491379699.09,4469,13.69,73632.0,0.83,-2.43,-2.43,0,*79
1491379700.3,4470,13.69,73634.0,0.83,-2.35,-2.23,0,*76
1491379701.54,4471,13.69,73630.3,0.85,-2.51,-2.47,0,*71
1491379702.81,4472,13.63,73632.3,0.83,-2.51,-2.51,0,*73
1491379704.06,4473,13.69,73638.3,0.85,-2.63,-2.63,0,*74
1491379705.32,4474,13.69,73632.0,0.83,-2.75,-2.67,0,*76
1491379706.51,4475,13.63,73632.3,0.85,-2.35,-2.23,0,*75
1491379707.75,4476,13.69,73630.0,0.83,-2.15,-1.99,0,*70
1491379708.96,4477,13.63,73628.5,0.83,-2.39,-2.23,0,*7D
1491379710.15,4478,13.63,73630.3,0.85,-2.35,-2.23,0,*78
1491379711.36,4479,13.69,73632.3,0.85,-2.31,-2.11,0,*7C
1491379712.6,4480,13.63,73624.3,0.85,-1.99,-1.95,0,*74
1491379713.84,4481,13.63,73630.3,0.85,-2.11,-2.07,0,*7E
1491379715.05,4482,13.69,73634.8,0.85,-2.23,-2.11,0,*7B
1491379716.32,4483,13.63,73630.0,0.87,-1.99,-1.99,0,*79
1491379717.56,4484,13.63,73630.5,0.87,-2.47,-2.35,0,*7B
1491379718.77,4485,13.69,73632.0,0.87,-2.39,-2.35,0,*73
1491379720.0,4486,13.63,73626.3,0.87,-2.39,-2.47,0,*75